Regional Weather Roundup
Issued by NWS

Home | Current Version | Previous Version | Text Only | Print | Product List | Glossary On
Versions: 1 2 3 4 5 6 7 8 9 10 11 12 13 14 15 16 17 18 19 20 21 22 23 24 25 26 27 28 29 30 31 32 33 34 35 36 37 38 39 40 41 42 43 44 45 46 47 48 49 50
000
ASUS45 KBOI 030810
RWRID
WEATHER ROUNDUP FOR IDAHO
NATIONAL WEATHER SERVICE BOISE ID
100 AM MST TUE MAR 03 2015

NOTE: "FAIR" INDICATES FEW OR NO CLOUDS BELOW 12000 FEET
WITH NO SIGNIFICANT WEATHER AND/OR OBSTRUCTIONS TO VISIBILITY

IDZ012-014-030900-
SOUTHWEST IDAHO


CITY           SKY/WX    TMP DP  RH WIND       PRES   REMARKS
BOISE          CLOUDY    35  24  64 NW12      29.86R WCI  27
CALDWELL       CLOUDY    37  19  48 NW18      29.90R WCI  27
MOUNTAIN HOME  CLOUDY    35  22  60 NW24G32   29.83R WCI  22
$$

IDZ016-017-030900-
SOUTHCENTRAL IDAHO


CITY           SKY/WX    TMP DP  RH WIND       PRES   REMARKS
BURLEY         CLOUDY    34  20  56 W22G30    29.74R WCI  22
JEROME         CLOUDY    33  23  66 SW20G29   29.76R WCI  21
TWIN FALLS     CLOUDY    34  23  64 W23G30    29.78R WCI  22
$$

IDZ019>023-030900-
SOUTHEAST IDAHO


CITY           SKY/WX    TMP DP  RH WIND       PRES   REMARKS
IDAHO FALLS    CLOUDY    32  20  61 SW17      29.68R WCI  21
POCATELLO      CLEAR     33  20  58 SW18      29.71S WCI  22
REXBURG        CLOUDY    26  32 100 E13       29.69R WCI  15
$$

IDZ006-010-011-018-031-032-030900-
CENTRAL IDAHO MOUNTAINS


CITY           SKY/WX    TMP DP  RH WIND       PRES   REMARKS
MCCALL         PTCLDY    24  15  68 NW5       29.80R WCI  18
HAILEY         CLOUDY    32  21  64 NW6       29.66S WCI  26
STANLEY          N/A     25  17  72 CALM      29.70S
SALMON         CLOUDY    28  12  50 NE20G26   29.79R WCI  15
CHALLIS        CLOUDY    29  24  82 W7        29.72S WCI  22
$$

IDZ002-004-006-007-026-030900-
NORTHERN IDAHO


CITY           SKY/WX    TMP DP  RH WIND       PRES   REMARKS
LEWISTON       CLOUDY    35  33  92 SW3       30.01R
LOWELL           N/A     33  28  81 VRB3      30.00R
COEUR D`ALENE  CLEAR     27  14  59 N13       30.06R WCI  16
MULLAN PASS    PTCLDY     8   5  87 VRB3      29.85R
$$



USA.gov is the U.S. government's official web portal to all federal, state and local government web resources and services.